Regional Weather Roundup
Issued by NWS Green Bay, WI

Home | Current Version | Previous Version | Graphics & Text | Print | Product List | Glossary Off
Versions: 1 2 3 4 5 6 7 8 9 10 11 12 13 14 15 16 17 18 19 20 21 22 23 24 25 26 27 28 29 30 31 32 33 34 35 36 37 38 39 40 41 42 43 44 45 46 47 48 49 50

999
ASUS43 KGRB 200111
RWRGRB

NORTH-CENTRAL AND NORTHEAST WISCONSIN REGIONAL WEATHER ROUNDUP
NATIONAL WEATHER SERVICE GREEN BAY WI
800 PM CDT THU APR 19 2018

WIZ005-009-010>012-018-019-200200-
NORTH CENTRAL WISCONSIN

CITY           SKY/WX    TMP DP  RH WIND       PRES   REMARKS
IRONWOOD       FAIR      46   7  20 S3        30.40S
MANITOWISH WTR FAIR      40  13  33 CALM      30.39R
ARBOR VITAE    FAIR      43  11  26 N3        30.38S
EAGLE RIVER    FAIR      44   6  20 NW5       30.38R
LAND O LAKES   FAIR      39   6  25 CALM      30.40S
RHINELANDER    FAIR      48   5  17 CALM      30.39
PHILLIPS       FAIR      47  14  26 W3        30.38S
ANTIGO         FAIR      42  14  32 NW3       30.38R
TOMAHAWK       FAIR      42   6  22 CALM      30.39R
MERRILL          N/A     48  10  21 N5        30.39R
$$

WIZ013-073-200200-
NORTHEAST WISCONSIN

CITY           SKY/WX    TMP DP  RH WIND       PRES   REMARKS
IRON MOUNTAIN  FAIR      42  12  29 NW3       30.36R
MARINETTE      FAIR      44  13  28 SE3       30.39R
OCONTO         FAIR      40  13  33 CALM      30.38S
$$

WIZ017-030-035>037-045-200200-
CENTRAL WISCONSIN

CITY           SKY/WX    TMP DP  RH WIND       PRES   REMARKS
MEDFORD        FAIR      45  15  30 W7        30.39S
WAUSAU         FAIR      45  21  38 CALM      30.37S
MOSINEE        PTCLDY    43  21  42 W7        30.40S
MARSHFIELD     FAIR      43  21  41 W7        30.40R
WISC RAPIDS    FAIR      45  18  34 W3        30.42R
STEVENS POINT  FAIR      44  19  38 W3        30.41R
WAUPACA        FAIR      46  20  35 W6        30.39S
SHAWANO        FAIR      46  21  37 CALM      30.37R
CLINTONVILLE   FAIR      48  18  30 W3        30.37R
WAUTOMA        FAIR      43  21  41 W6        30.41R
$$

WIZ038-039-048-051-200200-
FOX VALLEY

CITY           SKY/WX    TMP DP  RH WIND       PRES   REMARKS
NWS GREEN BAY  FAIR      42  25  50 S5        30.38R
APPLETON       CLEAR     43  19  39 W10       30.37R
OSHKOSH        FAIR      44  21  40 W5        30.39R
FOND DU LAC    FAIR      45  24  43 SW6       30.39S
$$

WIZ022-050-052-200200-
EAST CENTRAL WISCONSIN

CITY           SKY/WX    TMP DP  RH WIND       PRES   REMARKS
EPHRAIM        FAIR      44   7  22 N5        30.36S
WASHINGTON ISL FAIR      39  16  38 CALM      30.36S
STURGEON BAY   FAIR      42  14  32 CALM      30.39R
MANITOWOC      FAIR      45  23  42 W3        30.39S
SHEBOYGAN      FAIR      40  28  62 W6        30.39R
$$

LMZ563-521-522-541>543-200200-
LAKESHORE

STATION/POSITION TIME  TEMP    WIND        PRES    VSBY  WAVE
                       AIR SEA DIR/SP/G                  HT/PER
                 (UTC) (F)     (DEG/KT/KT) (MB)    (MI)  (FT/S)
SHEBOYGAN LKSHOR 0100   47     260/  9/ 10 1029.2S
KEWAUNEE LKSHORE 0048   41        CALM     1028.0R
NORTHPORT PIER   0040   40                 1028.1R
SISTER BAY LKSHO 0012   48      30/  9/ 12   N/A
MENOMINEE LKSHOR 0048   42     190/  3/  4 1028.3R
$$




USA.gov is the U.S. government's official web portal to all federal, state and local government web resources and services.